Torna al catalogo

STARLINK-3398

AttivoComunicazioniVLEO
NORAD 51120·PAYLOAD·🇺🇸 United States

Lanciato Jan 19, 2022 da Cape Canaveral Space Force Station

Loading…

Prossimi Passaggi (prossime 24 ore)

TLE

AggiornatoSource: CelesTrak SupGP

Epoca: Sep 14, 2026, 14:18 UTC

1 51120C 22005S   26257.59631944  .00027316  00000+0  80738-3 0  2575
2 51120  53.1577 153.2611 0001230  95.4941 138.7802 15.34365032    18

Traccia STARLINK-3398 in tempo reale con AllMySat

Download on the App Store